User: anonymous   Login
Location: ????????
(55.0808°N, 38.5463°E)
Time: 19:44:34
(UTC+00:00)
Language:

CZ-2C R/B - Orbit

View from above orbital plane
View from above orbital plane
View from above satellite
View from above satellite

Ground track
Ground track

The orbit data is extracted from the following two-line orbital elements,

1 31114U 07010B   24171.93404718  .00000133  00000-0  80887-4 0  9991
2 31114  98.3330 307.8397 0058577 321.3389  38.3602 14.19797181890621
Epoch (UTC): 19 June 2024 22:25:01
Eccentricity: 0.0058577
inclination: 98.3330°
perigee height: 784 km
apogee height: 868 km
right ascension of ascending node: 307.8397°
argument of perigee: 321.3389°
revolutions per day: 14.19797181
mean anomaly at epoch: 38.3602°
orbit number at epoch: 89062

The dashed part of the orbit path shows where the satellite is in the earth's shadow,  

DLR